Lid_Strength_Index
11 15 19 16 14 14 15 15 17 14 12 12 12 11 11 10 10 10 11 11 10 9 7 4 4 3 4 4 4 4 2 1 1 1 2 2 2 2 1 1 2 1 1 1
15 17 14 13 13 13 14 17 17 14 11 11 12 14 12 10 10 10 10 10 10 9 6 4 3 4 4 4 3 4 3 1 1 1 1 1 1 1 1 1 1 1 1 1
17 15 13 13 14 14 16 18 17 16 12 11 14 14 13 11 10 10 10 9 9 8 6 5 4 4 4 5 4 4 4 3 1 1 1 1 1 2 2 1 1 1 1 1
16 13 14 15 15 14 17 13 13 14 13 17 13 19 16 14 12 11 11 10 10 8 6 5 5 5 6 4 4 6 5 4 4 1 2 2 3 3 2 1 1 1 1 1
17 15 16 16 14 14 15 12 14 14 13 14 18 19 20 13 14 13 11 10 10 9 8 7 6 6 6 5 5 6 7 7 6 5 5 4 4 2 1 1 2 2 2 2
15 13 14 15 13 13 12 13 13 13 14 19 20 21 22 16 13 13 11 10 11 11 9 8 7 7 7 6 6 6 7 7 7 6 6 7 7 6 5 5 4 4 4 4
16 15 14 13 15 13 13 16 23 23 24 21 17 19 19 14 12 12 12 11 11 11 11 10 10 9 8 8 8 7 8 9 9 8 8 7 7 7 7 6 6 6 6 6
19 20 15 13 15 16 16 16 21 25 22 21 16 21 18 13 11 11 12 13 12 12 12 12 11 11 10 10 9 10 9 10 9 9 8 8 7 8 7 7 7 7 7 7
19 18 14 14 13 14 16 17 14 17 20 19 19 17 14 13 13 13 13 13 13 12 12 12 12 12 12 11 11 11 10 10 9 9 8 8 8 7 8 7 7 7 7 7
16 20 16 14 13 13 15 13 18 19 26 24 19 19 18 15 15 14 14 15 14 13 12 12 13 13 12 12 12 11 11 11 10 10 9 9 9 8 8 8 8 8 8 8
15 17 18 15 16 17 16 16 16 17 18 20 21 19 16 14 14 15 14 13 14 14 13 13 12 12 12 12 12 12 12 11 11 10 10 10 10 9 9 9 9 9 9 9
14 17 21 18 15 14 15 15 15 19 20 18 18 19 13 14 14 15 14 13 13 13 13 13 13 12 12 13 12 12 12 11 11 11 10 10 9 10 10 10 10 10 10 10
15 22 27 22 18 15 16 15 14 15 16 18 20 19 14 15 15 15 15 14 13 13 12 12 12 13 13 13 12 12 12 12 11 11 11 10 10 9 10 10 10 10 10 11
13 18 21 23 20 17 18 16 15 16 20 18 18 18 16 16 16 15 15 14 15 13 12 12 12 13 12 12 13 13 12 12 11 11 11 11 10 10 9 9 9 9 9 9
15 23 20 18 17 17 17 17 17 17 16 18 18 17 15 15 15 15 14 14 14 14 13 12 12 12 12 12 12 12 12 11 11 11 11 10 9 9 9 9 9 9 9 9
16 24 21 24 19 19 19 17 17 16 16 16 16 16 13 13 15 15 14 14 14 14 13 12 12 12 12 11 12 11 11 11 10 11 11 11 10 9 9 9 9 8 8 9
18 22 27 27 22 24 25 21 18 17 17 16 18 14 14 15 14 14 14 14 14 14 13 13 12 12 12 12 11 12 12 11 11 11 11 11 11 10 10 9 9 9 9 9
21 24 28 29 28 29 19 19 19 18 16 15 15 14 13 13 13 13 12 13 14 13 13 13 12 12 11 12 12 12 11 11 11 12 12 12 12 11 11 11 10 10 10 10
17 20 29 28 34 23 20 20 19 19 19 16 15 13 13 15 15 15 13 13 13 13 12 12 11 11 11 12 12 11 11 12 12 12 12 12 12 12 12 12 12 11 11 11
18 19 23 34 31 30 20 19 18 17 21 17 14 13 15 14 16 16 13 13 13 12 12 12 12 11 12 12 12 12 12 12 12 12 12 12 12 12 12 12 12 12 12 11
21 21 25 33 31 26 19 18 17 23 19 17 14 13 14 14 13 13 13 13 12 12 12 12 12 12 12 12 12 12 12 12 12 12 12 12 13 12 12 12 12 12 12 11
21 22 26 28 30 26 18 19 20 17 17 16 15 13 13 13 14 13 12 13 13 13 12 13 13 13 13 12 12 12 13 13 13 14 14 15 15 13 12 14 13 13 12 12
22 20 22 21 20 17 17 17 16 16 16 16 14 13 13 14 14 14 13 13 13 13 13 13 14 13 13 13 13 13 13 14 15 18 18 18 17 14 14 13 13 14 13 13
20 18 20 19 17 17 17 16 16 16 15 15 14 13 13 14 14 14 13 13 13 14 14 14 14 13 13 14 14 14 14 17 20 19 19 18 17 16 15 14 13 13 15 15
19 17 19 19 17 17 17 16 15 16 15 15 15 14 13 14 14 14 13 13 13 14 14 14 15 15 15 17 18 19 18 20 19 19 19 18 17 18 16 15 15 14 14 13
18 18 18 19 16 15 15 15 14 16 15 15 15 15 14 13 14 14 13 13 13 14 16 17 17 17 17 18 20 21 24 20 21 19 19 18 18 18 17 16 15 12 11 10